Theta_e
315 317 318 319 319 316 316 316 313 315 316 317 328 321 324 322 322 322 328 332 330 329 329 332 329 327 321 317 315 313 312 321 331 328 315 311 310 311 324 328 329 329 326 326 316 312 312 317 325
316 316 318 321 320 319 317 312 315 314 317 318 322 322 323 323 329 329 335 332 331 330 330 330 327 328 322 318 316 315 313 316 331 328 313 310 310 310 319 325 326 329 327 329 324 314 312 312 312
315 317 320 315 314 320 317 312 313 315 320 318 320 322 323 325 327 330 334 332 332 331 330 329 326 328 324 320 318 316 315 328 331 326 315 311 309 309 317 324 328 327 327 328 324 322 315 313 313
315 317 316 316 316 315 314 312 314 315 317 317 321 322 324 323 327 332 333 333 333 332 330 327 326 329 326 322 320 318 317 327 331 321 317 314 310 308 312 314 327 327 326 325 326 323 324 323 323
317 316 314 314 315 313 310 314 314 314 315 317 320 319 324 325 327 333 333 335 334 332 331 329 326 329 327 324 322 320 319 319 322 319 318 315 312 309 309 309 313 326 325 324 318 314 324 323 323
317 314 314 316 314 313 314 315 315 315 315 318 319 321 324 329 329 331 335 335 335 332 331 330 327 329 328 325 323 322 321 320 320 320 319 317 314 310 308 308 309 324 319 312 311 311 314 320 316
314 311 313 313 314 316 315 315 314 314 314 317 320 321 322 328 328 330 334 335 335 334 332 331 329 330 329 326 325 324 323 322 322 322 320 318 314 311 310 310 309 317 312 311 312 313 314 316 318
316 311 313 312 314 316 313 315 315 314 314 316 321 317 319 322 325 331 335 336 337 334 332 331 331 329 329 328 326 325 324 324 324 324 323 319 315 313 312 312 312 312 312 312 313 313 314 315 316
316 311 312 313 313 315 312 314 314 315 315 317 320 318 319 322 323 331 334 335 336 335 333 331 331 330 330 329 328 326 326 325 325 325 324 320 317 316 315 315 315 315 314 314 314 315 314 313 313
313 311 311 311 311 312 312 314 315 315 315 315 317 318 318 322 322 327 331 331 335 334 333 332 331 332 330 330 329 328 327 326 326 326 325 322 319 318 317 317 317 317 317 317 317 316 316 315 313
312 313 311 311 312 313 313 313 314 314 313 316 317 317 318 322 323 323 326 326 327 327 332 332 332 332 331 330 330 329 328 327 327 327 326 323 321 320 318 319 319 319 319 319 318 318 317 316 314
312 311 311 311 312 313 312 313 313 314 316 316 317 316 317 320 321 321 320 322 324 328 328 329 331 332 332 331 330 330 329 329 328 328 325 323 322 321 320 320 320 320 320 319 319 318 318 317 315
310 310 310 311 311 311 312 312 312 313 316 316 315 315 317 318 320 321 323 324 325 328 329 328 329 329 331 332 332 331 330 329 328 328 326 324 323 322 321 321 321 320 320 320 319 319 318 317 316
310 310 310 311 311 311 310 309 310 311 312 312 314 315 315 317 318 321 323 323 324 325 327 329 329 327 327 329 331 329 329 330 329 328 327 325 323 322 322 321 321 320 321 320 320 320 319 318 317
310 310 309 310 310 311 311 309 309 312 311 312 312 314 315 316 320 319 319 319 320 322 326 327 329 329 328 328 329 328 328 328 328 329 328 326 324 324 322 321 321 321 320 320 320 320 321 319 318
308 307 310 308 310 310 309 309 307 309 310 311 311 312 313 315 316 318 319 320 321 324 325 328 328 329 329 330 330 329 328 328 327 327 329 328 327 325 324 322 321 321 321 320 320 320 320 319 318
306 308 309 309 308 309 308 309 307 311 311 311 311 310 311 312 314 316 317 318 319 320 323 327 329 329 329 331 331 331 330 329 328 328 327 328 328 327 325 324 323 322 321 320 319 319 320 319 319
309 309 307 308 308 309 309 308 306 310 310 311 312 312 312 312 313 313 313 314 316 318 320 322 326 328 330 331 332 332 331 331 330 329 328 327 327 328 328 326 325 324 324 323 322 321 320 319 319
307 307 307 307 308 310 308 307 308 309 310 311 312 313 314 314 314 314 314 314 314 314 316 319 321 322 327 331 333 333 333 331 331 331 330 327 327 328 329 328 326 325 326 325 324 323 321 321 320
307 308 308 308 309 309 308 308 307 307 309 312 313 313 313 314 314 314 313 313 313 313 314 314 316 318 321 324 327 331 332 332 331 332 331 330 327 328 329 328 329 327 326 326 325 325 324 322 320
306 306 307 308 307 305 304 305 306 306 306 309 311 312 312 312 313 313 312 312 312 311 312 313 314 314 316 319 324 329 332 331 332 331 332 331 331 330 330 328 329 328 327 327 326 325 324 323 321
307 305 306 307 308 307 305 307 305 305 304 305 310 310 310 310 311 312 312 312 313 314 313 314 312 313 314 317 322 323 325 328 327 330 330 329 331 331 331 331 329 327 327 327 326 326 325 323 323
307 304 306 307 306 307 307 308 305 304 307 307 307 308 309 313 314 314 314 313 312 312 312 313 313 312 313 314 318 321 324 326 328 326 334 329 333 330 330 330 331 329 329 328 326 326 325 323 321
304 305 305 304 305 308 305 306 304 305 306 307 307 309 309 313 314 314 313 313 314 314 313 314 313 312 312 313 313 317 320 325 328 330 331 329 332 331 329 331 330 330 327 328 327 326 325 324 319
306 306 308 309 308 308 304 305 306 305 303 304 305 307 311 313 314 314 315 315 315 315 316 316 315 313 312 311 312 314 320 324 325 328 331 331 331 331 330 329 329 329 327 326 323 321 320 321 319
305 306 308 308 309 307 305 307 307 304 305 307 309 310 313 312 313 314 315 315 315 315 316 316 315 314 313 313 313 314 317 320 323 325 329 326 327 327 328 327 326 323 323 321 320 319 319 318 318
308 308 305 305 295 306 305 305 305 305 305 308 309 311 312 313 313 314 314 314 314 314 314 315 316 316 316 315 316 318 320 324 328 328 327 327 326 325 324 324 322 321 319 318 317 316 317 317 316
307 306 308 305 304 306 305 305 308 307 308 309 309 310 311 311 312 312 313 313 313 312 313 313 313 314 316 320 322 324 324 324 324 324 323 323 322 322 319 316 314 313 313 314 314 316 316 315 315
307 307 306 306 306 307 305 306 302 306 305 307 308 310 311 312 312 312 312 313 313 313 312 312 312 312 313 313 314 314 314 315 315 315 315 313 312 311 310 310 310 309 309 310 311 312 313 313 312
308 307 307 309 307 305 306 308 306 303 306 309 309 311 311 311 311 312 312 312 312 312 312 311 311 312 312 312 312 312 312 312 312 312 311 311 311 311 310 310 310 309 309 308 308 308 308 308 308
Wind_Speed
4 3 2 1 4 4 1 2 0 3 4 4 12 6 5 3 4 2 7 21 20 19 19 14 11 9 9 9 10 11 12 14 9 9 12 13 15 16 18 17 20 18 17 18 17 15 14 13 12
4 4 4 4 4 2 3 2 6 4 5 12 10 7 3 2 3 2 17 22 21 17 16 14 12 9 9 9 10 11 12 14 10 9 14 14 14 15 16 16 18 18 17 17 17 16 16 15 14
4 5 4 4 3 4 4 4 5 4 14 6 5 4 4 4 4 13 18 21 23 16 14 15 12 10 9 9 10 10 12 14 9 6 12 12 13 13 15 17 18 17 16 17 18 18 17 16 17
5 4 6 4 3 3 2 4 6 10 4 4 5 3 4 4 8 12 20 21 20 18 14 14 12 11 10 9 9 10 11 12 9 7 10 10 11 11 12 13 18 16 14 16 17 17 19 18 20
5 4 4 3 2 2 3 5 12 5 5 4 6 4 4 6 11 13 18 19 19 19 15 14 12 12 11 10 10 9 9 8 7 7 7 8 9 9 9 9 14 16 14 16 14 15 17 17 20
2 3 4 2 2 1 1 10 9 5 5 5 3 7 4 12 12 14 17 18 18 17 16 15 13 12 11 10 9 9 9 7 6 6 6 6 7 8 7 7 12 15 12 12 13 13 13 14 14
5 4 3 4 3 2 5 11 6 7 7 5 3 5 4 14 13 14 19 18 18 17 16 16 14 13 11 10 9 7 7 7 5 5 5 5 6 7 6 7 10 12 11 12 12 12 12 12 11
5 5 3 1 3 2 7 10 5 8 5 5 8 3 3 17 15 16 19 18 17 18 18 17 16 14 13 11 10 8 7 6 4 4 4 4 6 6 6 8 9 10 10 11 11 12 11 9 8
4 4 2 3 5 3 10 5 5 5 5 8 10 4 3 18 18 20 21 21 19 20 20 19 18 16 14 13 11 10 8 7 5 3 3 4 5 5 6 7 8 9 10 10 11 10 9 7 5
4 4 8 5 4 2 8 6 12 6 6 7 8 9 6 18 19 23 25 25 24 23 22 21 20 19 17 15 14 12 10 8 6 4 3 3 4 5 6 7 7 8 8 9 8 8 7 6 6
3 5 5 5 3 3 7 4 8 8 3 11 15 14 11 18 21 22 23 23 23 22 22 21 21 20 19 18 16 14 13 11 9 7 5 3 4 5 6 5 5 6 6 6 6 6 6 5 5
5 3 5 6 5 5 7 7 4 10 5 2 9 10 15 19 22 23 21 21 22 21 20 21 21 21 21 19 18 16 15 14 12 9 7 5 6 6 6 5 5 5 4 4 4 3 3 4 3
3 4 6 4 6 4 4 3 4 11 13 11 8 10 17 19 21 22 22 21 21 23 22 21 19 22 22 21 20 19 18 16 14 13 11 8 8 6 6 5 5 5 5 4 3 1 1 1 1
5 5 5 3 3 2 2 2 2 5 9 15 18 12 16 21 21 23 25 25 25 24 25 23 23 20 20 21 19 20 20 18 18 17 14 13 12 11 8 5 6 7 7 6 5 4 3 3 3
7 4 3 2 1 1 1 4 7 14 10 7 14 17 14 18 24 25 22 25 24 25 26 26 26 24 22 20 21 21 21 21 20 19 19 17 15 14 14 10 8 10 9 10 10 9 8 8 8
4 5 3 1 4 1 4 8 5 3 8 13 16 15 19 19 23 23 23 25 26 27 28 27 28 28 26 25 23 22 22 22 21 23 22 21 20 18 19 15 14 14 15 15 13 12 12 12 12
6 4 2 4 3 2 3 6 5 2 2 5 9 17 15 18 23 24 25 25 26 28 30 31 32 31 30 29 27 25 24 25 24 23 22 22 23 22 23 21 20 20 19 18 17 16 16 15 15
4 3 2 4 2 2 2 9 8 12 12 15 14 10 13 19 20 19 21 23 26 29 30 32 34 34 34 33 33 32 31 29 29 26 23 20 22 24 26 26 25 24 23 22 21 21 19 19 18
5 3 5 2 2 2 5 7 14 17 15 21 24 22 21 21 17 18 19 19 23 28 32 35 36 36 38 39 40 39 37 35 32 32 29 25 26 27 27 32 30 30 28 28 26 25 25 24 23
4 4 2 1 2 3 4 10 12 12 14 23 25 26 24 24 25 22 22 21 25 27 30 34 37 37 37 39 39 40 38 39 35 32 33 32 29 31 32 31 36 34 31 33 32 32 29 30 30
4 6 4 4 1 2 4 7 7 4 7 15 22 29 30 28 29 30 25 21 25 30 31 34 36 37 37 37 38 40 39 40 37 37 35 34 34 34 35 35 36 35 37 35 36 36 37 35 34
5 7 5 4 3 3 2 5 5 6 9 7 23 21 18 16 17 21 22 21 21 19 21 26 35 37 37 38 40 40 40 39 38 38 34 32 31 31 31 33 37 35 37 39 38 40 44 42 41
6 6 7 3 4 2 2 1 6 2 6 10 6 6 3 4 6 9 14 15 14 18 23 22 25 34 35 36 39 39 39 37 35 32 33 32 32 31 32 34 36 39 42 42 36 42 40 48 50
10 7 7 4 3 2 6 6 4 5 7 3 3 5 2 4 2 3 2 3 6 9 12 14 15 24 29 30 32 37 38 36 36 34 32 29 29 29 31 39 36 39 40 38 39 40 43 44 47
3 7 2 1 1 5 3 2 7 7 8 5 5 8 4 2 1 3 4 2 2 3 6 9 12 18 23 26 28 30 33 33 33 31 29 28 27 27 29 33 34 36 34 32 34 37 33 43 42
7 7 6 8 4 3 2 7 7 6 7 9 8 7 4 4 2 1 2 2 1 1 1 3 6 10 13 18 21 23 25 26 26 24 23 23 23 22 28 22 25 23 26 29 31 35 35 38 38
5 6 4 7 3 3 5 7 9 9 7 5 7 6 6 5 5 4 3 3 3 2 1 1 1 3 7 10 13 15 17 18 18 16 15 16 16 20 16 22 25 31 32 32 33 33 31 33 33
7 9 4 2 4 4 5 5 8 1 6 6 6 3 4 5 7 6 5 4 3 2 2 2 4 5 7 9 11 12 12 13 13 13 14 16 20 24 25 26 26 26 28 29 30 31 30 33 30
3 4 3 5 5 6 2 7 7 10 7 8 6 7 7 6 5 3 2 2 2 3 4 4 5 6 6 7 9 10 10 9 9 9 10 11 11 14 15 16 18 19 20 22 24 26 28 31 32
3 7 7 6 6 2 3 9 3 5 7 12 11 10 10 9 8 6 3 1 2 2 3 5 5 5 6 8 9 10 10 9 7 5 6 7 9 12 14 15 16 16 17 19 21 23 24 26 27
Wind_Direction
230 208 201 30 54 62 133 198 205 133 139 165 148 155 187 170 169 208 164 161 159 160 158 153 148 139 125 117 111 107 113 116 102 80 80 82 86 90 98 100 95 96 92 87 93 96 105 111 115
191 178 146 91 89 75 264 231 173 194 158 138 131 133 151 188 177 171 150 160 159 156 158 154 149 142 132 123 116 112 113 119 105 86 76 82 88 94 103 101 99 97 91 89 85 89 98 102 103
189 162 124 91 110 168 196 207 154 145 138 142 128 168 171 163 163 152 158 162 167 167 157 156 152 150 141 132 122 116 117 112 124 98 76 80 83 90 98 92 98 97 94 93 89 85 90 95 95
177 132 71 90 193 223 211 172 145 134 201 187 155 139 152 147 152 156 160 162 166 171 165 163 160 156 151 144 132 124 124 121 126 90 71 71 80 88 101 103 107 100 93 94 95 91 93 93 93
174 105 70 88 225 257 243 161 149 132 159 182 166 183 154 150 153 158 168 169 171 170 172 171 167 164 160 154 144 135 131 128 119 90 75 74 81 91 102 96 105 110 109 101 94 90 96 100 102
113 89 74 166 238 257 129 164 149 143 146 174 194 150 150 158 156 160 169 173 176 177 175 176 172 171 168 162 153 147 138 136 127 105 87 81 87 95 106 98 99 111 110 99 94 94 99 98 91
120 83 151 150 188 138 173 156 162 161 158 206 200 135 169 170 161 166 171 175 178 184 184 183 180 177 176 173 166 158 148 140 137 113 96 95 98 104 107 97 98 110 98 92 93 90 86 84 85
122 94 93 215 186 186 164 162 181 169 192 177 182 207 193 178 164 167 171 174 184 189 192 192 190 187 186 184 179 174 167 158 154 120 103 99 104 112 113 105 108 108 98 94 93 92 91 90 91
121 70 137 203 158 203 163 159 170 180 160 179 195 221 188 177 172 171 176 181 188 194 199 199 199 197 196 194 191 188 186 180 178 155 126 116 121 125 121 112 107 103 102 100 98 92 86 78 77
93 109 198 193 189 207 184 184 168 168 183 196 214 221 203 179 188 182 187 187 191 194 199 205 206 206 203 202 202 201 199 198 194 183 159 148 145 142 136 128 118 113 107 104 97 90 83 80 80
132 164 189 183 211 166 176 193 182 161 220 213 213 217 202 186 196 198 200 203 200 200 202 207 213 213 211 211 211 211 210 209 206 198 191 187 173 161 149 142 134 123 112 106 101 88 79 69 70
120 164 166 145 147 148 163 158 194 214 223 217 226 221 218 202 204 209 210 204 204 202 204 209 212 217 217 217 220 222 221 219 216 212 203 187 176 168 163 161 161 158 148 137 121 98 74 61 62
126 154 165 144 135 129 149 215 224 242 238 242 258 229 221 220 220 218 217 214 209 212 213 210 213 217 219 220 223 227 227 228 225 220 214 199 192 178 170 175 181 183 186 192 203 185 129 50 25
152 120 133 152 140 127 157 233 244 248 238 241 241 237 224 227 223 220 219 218 217 217 220 218 219 220 220 222 223 230 233 236 232 228 224 216 208 209 198 206 216 217 223 231 245 265 270 254 272
120 107 69 62 31 44 61 296 229 247 249 242 235 229 228 229 226 225 231 227 225 225 226 225 225 227 227 224 223 224 226 232 239 238 231 225 224 222 223 224 241 243 243 246 251 258 266 263 260
81 52 113 274 144 259 127 262 275 240 255 244 245 235 233 233 234 230 230 235 233 232 233 231 231 232 234 233 231 230 229 226 229 234 238 235 232 231 232 231 241 247 251 246 249 251 254 254 253
12 172 155 319 203 125 150 255 271 234 322 286 263 247 241 240 237 234 232 236 237 238 237 236 235 236 237 239 239 238 237 234 234 236 240 237 241 239 239 239 243 244 251 254 253 258 257 256 257
177 161 176 222 170 95 183 257 268 262 279 282 281 267 247 245 241 242 241 240 242 240 239 240 239 239 239 240 241 241 240 238 236 237 238 237 241 243 244 245 244 246 250 253 255 256 260 259 256
137 137 169 215 25 194 237 262 275 277 275 276 272 266 260 256 256 247 247 242 241 240 239 239 238 238 236 235 236 239 237 240 238 238 238 240 244 247 247 249 244 245 249 251 251 250 251 250 252
134 136 218 58 45 197 339 286 272 263 255 261 267 269 260 258 260 260 258 252 250 248 244 240 240 238 237 237 238 239 242 243 247 246 243 241 245 247 249 255 253 247 248 248 250 250 251 248 246
152 158 174 184 182 70 338 287 280 305 271 268 260 261 265 267 269 270 273 265 258 247 245 243 241 240 238 238 237 238 238 244 246 248 247 244 246 248 247 249 254 255 248 252 251 252 250 248 248
184 200 154 141 108 233 359 280 302 278 293 277 271 270 279 283 276 274 271 259 249 241 245 245 240 238 237 236 236 236 237 236 243 246 250 255 253 254 256 258 258 257 258 252 256 254 256 249 246
210 125 142 118 111 55 329 342 263 287 279 264 269 281 257 299 296 288 264 249 248 248 238 247 242 233 234 236 237 240 238 241 245 247 249 254 255 262 258 257 262 260 256 252 262 258 265 252 246
150 85 53 57 97 285 204 178 249 199 213 258 155 142 347 349 352 12 8 238 246 248 240 245 241 233 234 236 237 239 241 238 241 246 250 254 256 262 266 263 264 268 261 258 264 267 263 261 254
73 108 44 7 360 230 333 170 245 250 232 226 252 294 309 308 55 83 87 85 157 218 231 238 239 233 231 231 232 232 234 236 242 248 251 254 261 264 270 267 266 265 266 279 273 267 283 274 265
193 161 160 190 194 229 61 232 255 243 268 268 275 280 276 215 206 152 99 112 135 151 217 235 224 221 226 230 230 228 230 235 243 249 250 258 259 263 264 262 263 266 273 274 275 275 275 270 275
203 214 156 103 21 62 219 284 288 260 266 252 237 230 240 216 207 218 220 229 239 243 260 281 222 191 193 194 199 206 217 225 233 241 246 253 257 259 258 258 266 268 267 269 269 269 272 277 275
167 153 84 5 138 229 261 269 230 161 201 204 205 193 196 182 182 187 193 206 217 239 239 220 211 201 191 188 193 199 207 218 223 228 238 247 255 261 267 269 269 270 270 269 266 264 266 270 273
149 177 93 130 160 177 233 254 215 208 194 189 181 154 145 153 155 164 168 211 241 265 262 246 222 207 199 193 193 196 198 207 213 220 233 243 255 263 266 272 275 276 273 270 269 270 269 269 269
354 185 158 172 214 234 150 258 173 201 187 165 160 150 135 125 119 107 105 195 216 210 214 207 192 172 164 160 157 158 154 155 163 187 229 254 269 277 281 284 286 286 284 281 279 278 276 274 275